Time,TemperatureF,DewpointF,PressureIn,WindDirection,WindDirectionDegrees,WindSpeedMPH,WindSpeedGustMPH,Humidity,HourlyPrecipIn,Conditions,Clouds,dailyrainin,SoftwareType,DateUTC
2015-05-25 00:00:00,66.8,65.0,30.12,SSE,150,0.0,-999.0,94,0.00,,,0.00,Haskell-WGSend-v0.01,2015-05-25 05:00:00,
2015-05-25 00:10:00,67.0,65.2,30.11,SSE,150,0.0,-999.0,94,0.00,,,0.00,Haskell-WGSend-v0.01,2015-05-25 05:10:00,
2015-05-25 00:15:00,67.1,65.3,30.11,SSE,150,0.0,-999.0,94,0.00,,,0.00,Haskell-WGSend-v0.01,2015-05-25 05:15:00,
2015-05-25 00:20:00,67.2,65.4,30.11,SSE,149,1.0,-999.0,94,0.00,,,0.00,Haskell-WGSend-v0.01,2015-05-25 05:20:00,
2015-05-25 00:25:00,67.3,65.5,30.11,SSE,149,0.0,-999.0,94,0.00,,,0.00,Haskell-WGSend-v0.01,2015-05-25 05:25:00,
2015-05-25 00:30:00,67.5,65.7,30.11,SSE,154,1.0,-999.0,94,0.00,,,0.00,Haskell-WGSend-v0.01,2015-05-25 05:30:00,
2015-05-25 00:35:00,67.6,65.5,30.11,SSE,154,4.0,-999.0,93,0.00,,,0.00,Haskell-WGSend-v0.01,2015-05-25 05:35:00,
2015-05-25 00:40:00,67.7,65.6,30.11,SSE,152,2.0,-999.0,93,0.00,,,0.00,Haskell-WGSend-v0.01,2015-05-25 05:40:00,
2015-05-25 00:45:00,67.7,65.6,30.11,SSE,152,2.0,-999.0,93,0.00,,,0.00,Haskell-WGSend-v0.01,2015-05-25 05:45:00,
2015-05-25 00:50:00,67.7,65.6,30.11,SSE,152,2.0,-999.0,93,0.00,,,0.00,Haskell-WGSend-v0.01,2015-05-25 05:50:00,
2015-05-25 00:55:00,67.8,65.7,30.11,SSE,153,0.0,-999.0,93,0.00,,,0.00,Haskell-WGSend-v0.01,2015-05-25 05:55:00,
2015-05-25 01:00:00,67.8,65.4,30.11,SSE,153,0.0,-999.0,92,0.00,,,0.00,Haskell-WGSend-v0.01,2015-05-25 06:00:00,
2015-05-25 01:05:00,67.8,65.4,30.11,SSE,153,0.0,-999.0,92,0.00,,,0.00,Haskell-WGSend-v0.01,2015-05-25 06:05:00,
2015-05-25 01:10:00,67.8,65.4,30.10,SSE,155,0.0,-999.0,92,0.00,,,0.00,Haskell-WGSend-v0.01,2015-05-25 06:10:00,
2015-05-25 01:15:00,67.9,65.5,30.10,SSE,153,1.0,-999.0,92,0.00,,,0.00,Haskell-WGSend-v0.01,2015-05-25 06:15:00,
2015-05-25 01:20:00,67.9,65.5,30.10,SSE,153,0.0,-999.0,92,0.00,,,0.00,Haskell-WGSend-v0.01,2015-05-25 06:20:00,
2015-05-25 01:25:00,67.9,65.5,30.10,SSE,153,0.0,-999.0,92,0.00,,,0.00,Haskell-WGSend-v0.01,2015-05-25 06:25:00,
2015-05-25 01:30:00,68.0,65.6,30.10,SSE,151,0.0,-999.0,92,0.00,,,0.00,Haskell-WGSend-v0.01,2015-05-25 06:30:00,
2015-05-25 01:35:00,67.9,65.2,30.10,SSE,151,2.0,-999.0,91,0.00,,,0.00,Haskell-WGSend-v0.01,2015-05-25 06:35:00,
2015-05-25 01:40:00,68.0,65.3,30.10,SSE,164,1.0,-999.0,91,0.00,,,0.00,Haskell-WGSend-v0.01,2015-05-25 06:40:00,
2015-05-25 01:45:00,68.0,65.3,30.10,SSE,163,0.0,-999.0,91,0.00,,,0.00,Haskell-WGSend-v0.01,2015-05-25 06:45:00,
2015-05-25 01:50:00,68.0,65.3,30.10,SSE,156,8.0,-999.0,91,0.00,,,0.00,Haskell-WGSend-v0.01,2015-05-25 06:50:00,
2015-05-25 01:55:00,68.1,65.1,30.10,SSE,165,0.0,-999.0,90,0.00,,,0.00,Haskell-WGSend-v0.01,2015-05-25 06:55:00,
2015-05-25 02:00:00,68.2,65.2,30.10,SSE,156,4.0,-999.0,90,0.00,,,0.00,Haskell-WGSend-v0.01,2015-05-25 07:00:00,
2015-05-25 02:05:00,68.4,65.0,30.10,SSE,154,2.0,-999.0,89,0.00,,,0.00,Haskell-WGSend-v0.01,2015-05-25 07:05:00,
2015-05-25 02:10:00,68.5,64.8,30.10,SSE,162,4.0,-999.0,88,0.00,,,0.00,Haskell-WGSend-v0.01,2015-05-25 07:10:00,
2015-05-25 02:15:00,68.5,64.8,30.10,SSE,162,1.0,-999.0,88,0.00,,,0.00,Haskell-WGSend-v0.01,2015-05-25 07:15:00,
2015-05-25 02:20:00,68.5,64.8,30.10,SSE,150,4.0,-999.0,88,0.00,,,0.00,Haskell-WGSend-v0.01,2015-05-25 07:20:00,
2015-05-25 02:25:00,68.6,64.6,30.10,South,174,1.0,-999.0,87,0.00,,,0.00,Haskell-WGSend-v0.01,2015-05-25 07:25:00,
2015-05-25 02:30:00,68.6,64.6,30.10,South,170,4.0,-999.0,87,0.00,,,0.00,Haskell-WGSend-v0.01,2015-05-25 07:30:00,
2015-05-25 02:35:00,68.6,64.6,30.10,SSE,168,0.0,-999.0,87,0.00,,,0.00,Haskell-WGSend-v0.01,2015-05-25 07:35:00,
2015-05-25 02:40:00,68.5,64.5,30.10,SSE,160,0.0,-999.0,87,0.00,,,0.00,Haskell-WGSend-v0.01,2015-05-25 07:40:00,
2015-05-25 02:45:00,68.5,64.1,30.10,SSE,165,4.0,-999.0,86,0.00,,,0.00,Haskell-WGSend-v0.01,2015-05-25 07:45:00,
2015-05-25 02:50:00,68.5,64.1,30.10,SSE,165,2.0,-999.0,86,0.00,,,0.00,Haskell-WGSend-v0.01,2015-05-25 07:50:00,
2015-05-25 02:55:00,68.5,64.1,30.11,SSE,163,0.0,-999.0,86,0.00,,,0.00,Haskell-WGSend-v0.01,2015-05-25 07:55:00,
2015-05-25 03:00:00,68.5,64.1,30.11,SE,146,4.0,-999.0,86,0.00,,,0.00,Haskell-WGSend-v0.01,2015-05-25 08:00:00,
2015-05-25 03:05:00,68.5,64.1,30.11,SE,146,2.0,-999.0,86,0.00,,,0.00,Haskell-WGSend-v0.01,2015-05-25 08:05:00,
2015-05-25 03:10:00,68.5,64.1,30.11,SE,142,0.0,-999.0,86,0.00,,,0.00,Haskell-WGSend-v0.01,2015-05-25 08:10:00,
2015-05-25 03:20:00,68.5,63.8,30.11,SSE,163,0.0,-999.0,85,0.00,,,0.00,Haskell-WGSend-v0.01,2015-05-25 08:20:00,
2015-05-25 03:25:00,68.5,63.5,30.11,SSE,150,1.0,-999.0,84,0.00,,,0.00,Haskell-WGSend-v0.01,2015-05-25 08:25:00,
2015-05-25 03:30:00,68.5,63.5,30.11,SSE,150,0.0,-999.0,84,0.00,,,0.00,Haskell-WGSend-v0.01,2015-05-25 08:30:00,
2015-05-25 03:35:00,68.5,63.5,30.11,SE,137,7.0,-999.0,84,0.00,,,0.00,Haskell-WGSend-v0.01,2015-05-25 08:35:00,
2015-05-25 03:40:00,68.5,63.5,30.11,SE,138,0.0,-999.0,84,0.00,,,0.00,Haskell-WGSend-v0.01,2015-05-25 08:40:00,
2015-05-25 03:45:00,68.5,63.1,30.11,SE,130,0.0,-999.0,83,0.00,,,0.00,Haskell-WGSend-v0.01,2015-05-25 08:45:00,
2015-05-25 03:50:00,68.5,63.1,30.11,SE,145,4.0,-999.0,83,0.00,,,0.00,Haskell-WGSend-v0.01,2015-05-25 08:50:00,
2015-05-25 03:55:00,68.5,63.1,30.11,SE,142,0.0,-999.0,83,0.00,,,0.00,Haskell-WGSend-v0.01,2015-05-25 08:55:00,
2015-05-25 04:00:00,68.5,63.1,30.11,SE,140,1.0,-999.0,83,0.00,,,0.00,Haskell-WGSend-v0.01,2015-05-25 09:00:00,
2015-05-25 04:05:00,68.5,63.1,30.11,SE,142,6.0,-999.0,83,0.00,,,0.00,Haskell-WGSend-v0.01,2015-05-25 09:05:00,
2015-05-25 04:10:00,68.4,63.0,30.11,SE,142,0.0,-999.0,83,0.00,,,0.00,Haskell-WGSend-v0.01,2015-05-25 09:10:00,
2015-05-25 04:15:00,68.4,63.0,30.11,SSE,149,10.0,-999.0,83,0.00,,,0.00,Haskell-WGSend-v0.01,2015-05-25 09:15:00,
2015-05-25 04:20:00,68.4,63.0,30.11,SSE,153,5.0,-999.0,83,0.00,,,0.00,Haskell-WGSend-v0.01,2015-05-25 09:20:00,
2015-05-25 04:25:00,68.3,62.9,30.11,SSE,163,0.0,-999.0,83,0.00,,,0.00,Haskell-WGSend-v0.01,2015-05-25 09:25:00,
2015-05-25 04:30:00,68.3,62.9,30.11,SSE,156,5.0,-999.0,83,0.00,,,0.00,Haskell-WGSend-v0.01,2015-05-25 09:30:00,
2015-05-25 04:35:00,68.2,62.5,30.10,SSE,156,0.0,-999.0,82,0.00,,,0.00,Haskell-WGSend-v0.01,2015-05-25 09:35:00,
2015-05-25 04:40:00,68.2,62.5,30.11,SSE,148,6.0,-999.0,82,0.00,,,0.00,Haskell-WGSend-v0.01,2015-05-25 09:40:00,
2015-05-25 04:45:00,68.1,62.4,30.11,SE,140,0.0,-999.0,82,0.00,,,0.00,Haskell-WGSend-v0.01,2015-05-25 09:45:00,
2015-05-25 04:50:00,68.1,62.4,30.11,SE,144,0.0,-999.0,82,0.00,,,0.00,Haskell-WGSend-v0.01,2015-05-25 09:50:00,
2015-05-25 04:55:00,68.1,62.4,30.11,SE,143,5.0,-999.0,82,0.00,,,0.00,Haskell-WGSend-v0.01,2015-05-25 09:55:00,
2015-05-25 05:00:00,68.1,62.4,30.11,SSE,149,0.0,-999.0,82,0.00,,,0.00,Haskell-WGSend-v0.01,2015-05-25 10:00:00,
2015-05-25 05:10:00,67.9,62.2,30.12,SSE,147,4.0,-999.0,82,0.00,,,0.00,Haskell-WGSend-v0.01,2015-05-25 10:10:00,
2015-05-25 05:15:00,67.9,62.2,30.11,SSE,150,2.0,-999.0,82,0.00,,,0.00,Haskell-WGSend-v0.01,2015-05-25 10:15:00,
2015-05-25 05:20:00,67.9,62.2,30.12,SSE,148,4.0,-999.0,82,0.00,,,0.00,Haskell-WGSend-v0.01,2015-05-25 10:20:00,
2015-05-25 05:25:00,67.9,62.2,30.12,SE,146,2.0,-999.0,82,0.00,,,0.00,Haskell-WGSend-v0.01,2015-05-25 10:25:00,
2015-05-25 05:30:00,67.9,62.2,30.12,SSE,147,2.0,-999.0,82,0.00,,,0.00,Haskell-WGSend-v0.01,2015-05-25 10:30:00,
2015-05-25 05:35:00,67.9,62.2,30.12,SSE,147,0.0,-999.0,82,0.00,,,0.00,Haskell-WGSend-v0.01,2015-05-25 10:35:00,
2015-05-25 05:40:00,67.9,62.2,30.12,SSE,161,0.0,-999.0,82,0.00,,,0.00,Haskell-WGSend-v0.01,2015-05-25 10:40:00,
2015-05-25 05:45:00,67.9,62.2,30.13,SSE,159,0.0,-999.0,82,0.00,,,0.00,Haskell-WGSend-v0.01,2015-05-25 10:45:00,
2015-05-25 05:50:00,68.0,62.3,30.13,SSE,160,0.0,-999.0,82,0.00,,,0.00,Haskell-WGSend-v0.01,2015-05-25 10:50:00,
2015-05-25 05:55:00,67.9,62.2,30.13,SSE,160,0.0,-999.0,82,0.00,,,0.00,Haskell-WGSend-v0.01,2015-05-25 10:55:00,
2015-05-25 06:00:00,67.9,62.2,30.14,SSE,160,0.0,-999.0,82,0.00,,,0.00,Haskell-WGSend-v0.01,2015-05-25 11:00:00,
2015-05-25 06:05:00,67.9,62.2,30.14,SSE,160,0.0,-999.0,82,0.00,,,0.00,Haskell-WGSend-v0.01,2015-05-25 11:05:00,
2015-05-25 06:10:00,68.0,62.6,30.14,SSE,161,0.0,-999.0,83,0.00,,,0.00,Haskell-WGSend-v0.01,2015-05-25 11:10:00,
2015-05-25 06:15:00,68.0,62.3,30.15,SSE,161,0.0,-999.0,82,0.00,,,0.00,Haskell-WGSend-v0.01,2015-05-25 11:15:00,
2015-05-25 06:20:00,68.0,62.3,30.15,SSE,161,0.0,-999.0,82,0.00,,,0.00,Haskell-WGSend-v0.01,2015-05-25 11:20:00,
2015-05-25 06:25:00,68.0,62.3,30.14,SSE,154,1.0,-999.0,82,0.00,,,0.00,Haskell-WGSend-v0.01,2015-05-25 11:25:00,
2015-05-25 06:30:00,68.0,62.3,30.15,SSE,154,2.0,-999.0,82,0.00,,,0.00,Haskell-WGSend-v0.01,2015-05-25 11:30:00,
2015-05-25 06:35:00,68.1,62.7,30.15,SSE,153,1.0,-999.0,83,0.00,,,0.00,Haskell-WGSend-v0.01,2015-05-25 11:35:00,
2015-05-25 06:40:00,68.1,62.4,30.14,SSE,153,0.0,-999.0,82,0.00,,,0.00,Haskell-WGSend-v0.01,2015-05-25 11:40:00,
2015-05-25 06:45:00,68.2,62.5,30.14,SSE,153,0.0,-999.0,82,0.00,,,0.00,Haskell-WGSend-v0.01,2015-05-25 11:45:00,
2015-05-25 06:50:00,68.3,62.6,30.14,SSE,153,0.0,-999.0,82,0.00,,,0.00,Haskell-WGSend-v0.01,2015-05-25 11:50:00,
2015-05-25 06:55:00,68.3,62.6,30.14,SSE,153,0.0,-999.0,82,0.00,,,0.00,Haskell-WGSend-v0.01,2015-05-25 11:55:00,
2015-05-25 07:00:00,68.4,62.7,30.14,SSE,150,0.0,-999.0,82,0.00,,,0.00,Haskell-WGSend-v0.01,2015-05-25 12:00:00,
2015-05-25 07:05:00,68.5,62.8,30.14,SSE,148,6.0,-999.0,82,0.00,,,0.00,Haskell-WGSend-v0.01,2015-05-25 12:05:00,
2015-05-25 07:10:00,68.6,62.9,30.14,SSE,148,6.0,-999.0,82,0.00,,,0.00,Haskell-WGSend-v0.01,2015-05-25 12:10:00,
2015-05-25 07:15:00,68.7,62.6,30.14,SE,140,0.0,-999.0,81,0.00,,,0.00,Haskell-WGSend-v0.01,2015-05-25 12:15:00,
2015-05-25 07:20:00,68.8,63.1,30.14,SE,142,0.0,-999.0,82,0.00,,,0.00,Haskell-WGSend-v0.01,2015-05-25 12:20:00,
2015-05-25 07:25:00,69.0,62.9,30.14,SE,141,0.0,-999.0,81,0.00,,,0.00,Haskell-WGSend-v0.01,2015-05-25 12:25:00,
2015-05-25 07:30:00,69.1,63.0,30.14,SSE,153,0.0,-999.0,81,0.00,,,0.00,Haskell-WGSend-v0.01,2015-05-25 12:30:00,
2015-05-25 07:35:00,69.3,63.2,30.14,SSE,148,4.0,-999.0,81,0.00,,,0.00,Haskell-WGSend-v0.01,2015-05-25 12:35:00,
2015-05-25 07:40:00,69.5,63.4,30.14,South,174,0.0,-999.0,81,0.00,,,0.00,Haskell-WGSend-v0.01,2015-05-25 12:40:00,
2015-05-25 07:45:00,69.6,63.5,30.14,SSE,149,0.0,-999.0,81,0.00,,,0.00,Haskell-WGSend-v0.01,2015-05-25 12:45:00,
2015-05-25 07:50:00,69.7,63.3,30.14,SSE,164,8.0,-999.0,80,0.00,,,0.00,Haskell-WGSend-v0.01,2015-05-25 12:50:00,
2015-05-25 08:00:00,69.9,63.4,30.15,SSE,164,2.0,-999.0,80,0.00,,,0.00,Haskell-WGSend-v0.01,2015-05-25 13:00:00,
2015-05-25 08:05:00,69.9,63.8,30.15,SSE,156,0.0,-999.0,81,0.00,,,0.00,Haskell-WGSend-v0.01,2015-05-25 13:05:00,
2015-05-25 08:10:00,70.0,63.9,30.15,SSE,156,8.0,-999.0,81,0.00,,,0.00,Haskell-WGSend-v0.01,2015-05-25 13:10:00,
2015-05-25 08:20:00,70.2,64.1,30.15,SSE,157,4.0,-999.0,81,0.00,,,0.00,Haskell-WGSend-v0.01,2015-05-25 13:20:00,
2015-05-25 08:25:00,70.3,64.2,30.15,ESE,123,5.0,-999.0,81,0.00,,,0.00,Haskell-WGSend-v0.01,2015-05-25 13:25:00,
2015-05-25 08:35:00,70.6,64.5,30.16,SE,136,6.0,-999.0,81,0.00,,,0.00,Haskell-WGSend-v0.01,2015-05-25 13:35:00,
2015-05-25 08:40:00,70.6,64.8,30.16,SE,133,0.0,-999.0,82,0.00,,,0.00,Haskell-WGSend-v0.01,2015-05-25 13:40:00,
2015-05-25 08:45:00,70.6,64.8,30.16,SE,132,5.0,-999.0,82,0.00,,,0.00,Haskell-WGSend-v0.01,2015-05-25 13:45:00,
2015-05-25 08:55:00,70.8,65.0,30.16,SE,141,0.0,-999.0,82,0.00,,,0.00,Haskell-WGSend-v0.01,2015-05-25 13:55:00,
2015-05-25 09:05:00,71.2,65.1,30.16,SE,140,5.0,-999.0,81,0.00,,,0.00,Haskell-WGSend-v0.01,2015-05-25 14:05:00,
2015-05-25 09:10:00,71.4,65.3,30.15,ESE,119,6.0,-999.0,81,0.00,,,0.00,Haskell-WGSend-v0.01,2015-05-25 14:10:00,